[[{"header":{"parameterUnit":"m.s-1","parameterCategory":1,"la1":30.2991,"la2":30.254,"lo1":-89.0895,"lo2":-89.0444,"dy":0.0017,"dx":0.0017,"nx":28,"ny":28,"refTime":"2025-06-22T21:00:00:Z","depth":0,"parameterNumber":2,"parameterNumberName":"U-component_of_WINDS"},"data":[0,0,0,0,0,0,0,0,0,0,0,0,0,0,0,0,0,0,0,0,0,0,0,0,0,0,0,0,0,0,0,0,0,0,0,0,0,0,0,0,0,0,0,0,0,0,0,0,0,0,0,0,0,0,0,0,0,0,-3.6886,-3.6884,0,-3.6772,-3.677,-3.6769,-3.6641,-3.664,-3.6638,-3.6636,-3.6517,-3.6516,-3.6515,0,0,0,0,0,0,0,0,0,0,0,0,0,-3.6994,-3.6993,-3.6886,-3.6884,-3.6883,-3.6772,-3.677,-3.6769,-3.6642,-3.6639,-3.6637,-3.6635,-3.6518,-3.6516,-3.6515,0,0,0,0,0,0,0,0,0,0,0,0,0,-3.692,-3.6992,-3.6886,-3.6806,-3.6798,-3.6772,-3.677,-3.6768,-3.6642,-3.6639,-3.6637,-3.6634,-3.6519,-3.6516,-3.6514,-3.6557,0,0,-3.6508,-3.6507,0,0,0,0,0,0,0,0,-3.6924,-3.6916,-3.6819,-3.6812,-3.6802,-3.6718,-3.6765,-3.6698,-3.6643,-3.6701,-3.6636,-3.6633,-3.6586,-3.6578,-3.6563,-3.6552,-3.6547,-3.6508,-3.6506,-3.6506,-3.6505,0,0,0,0,0,0,0,-3.693,-3.692,-3.684,-3.6818,-3.6808,-3.6776,-3.6763,-3.6751,-3.6661,-3.6696,-3.6686,-3.6675,-3.6581,-3.6566,-3.6559,-3.6545,-3.6508,-3.6506,-3.6505,-3.6504,-3.6566,-3.6569,0,0,0,0,0,0,-3.6947,-3.6926,-3.6844,-3.6837,-3.6858,-3.6777,-3.6761,-3.6748,-3.6661,-3.6645,-3.6677,-3.6669,-3.6571,-3.6562,-3.6555,-3.6601,-3.6506,-3.6504,-3.6502,-3.6563,-3.6567,-3.657,0,0,0,0,0,0,-3.695,-3.6941,-3.6849,-3.6879,-3.6865,-3.6778,-3.6764,-3.6747,-3.6731,-3.6647,-3.663,-3.6678,-3.6568,-3.6558,-3.6558,-3.6595,-3.6503,-3.6501,-3.656,-3.6564,-3.6568,-3.6692,0,0,0,0,0,0,-3.6953,-3.6943,-3.6958,-3.688,-3.6864,-3.6854,-3.6766,-3.6747,-3.6728,-3.6717,-3.6643,-3.6628,-3.6565,-3.6562,-3.6556,-3.659,-3.6499,-3.6556,-3.6562,-3.6567,-3.6685,-3.67,-3.6714,0,0,0,0,0,-3.6958,-3.6996,-3.6959,-3.695,-3.6881,-3.6857,-3.6847,-3.6774,-3.6732,-3.6746,-3.6692,-3.663,-3.6592,-3.6563,-3.6556,-3.6589,-3.6553,-3.656,-3.6566,-3.6678,-3.6697,-3.6714,0,0,0,0,0,0,-3.7079,-3.6984,-3.6942,-3.6957,-3.6916,-3.6835,-3.6851,-3.6797,-3.6767,-3.6757,-3.6668,-3.6652,-3.6664,-3.6626,-3.6596,-3.6628,-3.6564,-3.6569,-3.6651,-3.6669,-3.6684,-3.6692,-3.6497,0,0,0,0,0,-3.7108,-3.7096,-3.7014,-3.7035,-3.7017,-3.6939,-3.6925,-3.6873,-3.6827,-3.6808,-3.6754,-3.6712,-3.669,-3.6678,-3.6653,-3.6679,-3.6662,-3.6699,-3.6714,-3.6726,-3.6732,-3.6745,-3.6761,-3.6591,-3.6591,-3.6591,0,0,-3.7166,-3.7113,-3.7111,-3.7058,-3.702,-3.7011,-3.6924,-3.6917,-3.6909,-3.6807,-3.6804,-3.6764,-3.6711,-3.6725,-3.6729,-3.6694,-3.6775,-3.6735,-3.6745,-3.6743,-3.6753,-3.6769,-3.6784,-3.6596,-3.6595,-3.6594,0,0,-3.7268,-3.7227,-3.724,-3.7205,-3.715,-3.7097,-3.7101,-3.7029,-3.6999,-3.6996,-3.6919,-3.6909,-3.6874,-3.6839,-3.6817,-3.6911,-3.6853,-3.6906,-3.6982,-3.6996,-3.7009,-3.7021,-3.7055,-3.7068,-3.6912,-3.6912,-3.6912,0,-3.7347,-3.733,-3.7254,-3.7252,-3.7232,-3.7141,-3.7155,-3.7124,-3.7064,-3.7052,-3.7015,-3.697,-3.6928,-3.6934,-3.6957,-3.6942,-3.6944,-3.6913,-3.7014,-3.7024,-3.7034,-3.7065,-3.7078,-3.6919,-3.6918,-3.6917,-3.6917,0,-3.7431,-3.7421,-3.7438,-3.7384,-3.7366,-3.7372,-3.7297,-3.7288,-3.7239,-3.7192,-3.7191,-3.7138,-3.7102,-3.7099,-3.705,-3.71,-3.708,-3.703,-3.6964,-3.7058,-3.7086,-3.7098,-3.6928,-3.6926,-3.6924,-3.6922,0,0,-3.7602,-3.7509,-3.7516,-3.7492,-3.7426,-3.7416,-3.742,-3.7386,-3.738,-3.7343,-3.7344,-3.7318,-3.7272,-3.7247,-3.7194,-3.7207,-3.7286,-3.7154,-3.7152,-3.7181,-3.7338,-3.7377,-3.7392,-3.7248,-3.725,-3.7252,-3.7343,0,-3.7692,-3.7692,-3.7626,-3.7645,-3.7635,-3.7551,-3.7554,-3.7514,-3.7471,-3.7457,-3.7408,-3.7392,-3.7332,-3.7317,-3.7326,-3.7275,-3.7316,-3.7267,-3.7248,-3.7249,-3.7264,-3.7406,-3.7446,-3.7534,-3.7354,-3.7355,-3.7357,0,-3.7796,-3.7766,-3.7785,-3.7721,-3.7715,-3.7718,-3.7684,-3.7671,-3.7626,-3.7593,-3.7568,-3.7509,-3.7509,-3.7448,-3.7447,-3.7415,-3.7404,-3.7378,-3.738,-3.7375,-3.7308,-3.7405,-3.7561,-3.7574,-3.7373,-3.7372,-3.7371,0,-3.792,-3.7885,-3.7892,-3.7873,-3.7799,-3.7804,-3.7773,-3.7725,-3.771,-3.768,-3.7669,-3.764,-3.7623,-3.7602,-3.7537,-3.7499,-3.7545,-3.7477,-3.7518,-3.752,-3.753,-3.753,-3.7686,-3.7524,-3.7524,-3.7524,-3.7524,0,-3.8026,-3.8041,-3.7947,-3.7951,-3.7966,-3.7891,-3.7907,-3.7868,-3.7827,-3.7823,-3.7748,-3.7746,-3.7661,-3.7649,-3.7599,-3.7607,-3.76,-3.7574,-3.756,-3.758,-3.7584,-3.7571,-3.7563,-3.7527,-3.7527,-3.7526,-3.7525,0,-3.8166,-3.8104,-3.8106,-3.8037,-3.802,-3.8034,-3.7975,-3.7976,-3.793,-3.7926,-3.7921,-3.7848,-3.7831,-3.7765,-3.7731,-3.7697,-3.7722,-3.7695,-3.7738,-3.7729,-3.7773,-3.777,-3.7926,-3.7943,-3.7771,-3.7773,-3.7775,0,-3.8238,-3.8248,-3.8181,-3.8173,-3.8146,-3.8135,-3.812,-3.8047,-3.8035,-3.7986,-3.7994,-3.7972,-3.7949,-3.7927,-3.7871,-3.7846,-3.7818,-3.7875,-3.7813,-3.7834,-3.7819,-3.7819,-3.7821,-3.7887,-3.789,-3.7891,-3.7893,0,-3.8372,-3.8342,-3.8323,-3.8296,-3.8281,-3.8255,-3.8224,-3.8222,-3.8142,-3.8132,-3.8114,-3.8098,-3.8065,-3.8044,-3.8011,-3.7979,-3.7924,-3.7913,-3.7921,-3.7941,-3.7966,-3.7954,-3.7773,-3.7909,-3.7908,-3.7906,-3.7906,-3.7905,-3.848,-3.8486,-3.844,-3.8423,-3.8394,-3.8368,-3.8367,-3.8322,-3.8306,-3.8274,-3.8233,-3.8222,-3.8179,-3.8128,-3.8102,-3.8092,-3.806,-3.8072,-3.8075,-3.8079,-3.8089,-3.7969,-3.8086,-3.8085,-3.8085,-3.8084,-3.8084,0,-3.8611,-3.8578,-3.8564,-3.8525,-3.8512,-3.8462,-3.8427,-3.842,-3.8411,-3.8376,-3.8357,-3.8339,-3.8319,-3.8264,-3.8239,-3.8242,-3.8216,-3.8238,-3.8237,-3.8231,-3.8118,-3.8114,-3.826,-3.826,-3.826,-3.826,-3.826,-3.826,-3.8677,-3.8685,-3.865,-3.8643,-3.861,-3.8599,-3.8583,-3.856,-3.8532,-3.8515,-3.8499,-3.8464,-3.8421,-3.8393,-3.8374,-3.8358,-3.8352,-3.8383,-3.8359,-3.8255,-3.8238,-3.8222,-3.8218,-3.8383,-3.8383,-3.8472,-3.8473,-3.8473]},{"header":{"parameterUnit":"m.s-1","parameterCategory":1,"la1":30.2991,"la2":30.254,"lo1":-89.0895,"lo2":-89.0444,"dy":0.0017,"dx":0.0017,"nx":28,"ny":28,"refTime":"2025-06-22T21:00:00:Z","depth":0,"parameterNumber":3,"parameterNumberName":"V-component_of_WINDS"},"data":[0,0,0,0,0,0,0,0,0,0,0,0,0,0,0,0,0,0,0,0,0,0,0,0,0,0,0,0,0,0,0,0,0,0,0,0,0,0,0,0,0,0,0,0,0,0,0,0,0,0,0,0,0,0,0,0,0,0,0.9699,0.9698,0,0.9649,0.9648,0.9648,0.9677,0.9678,0.9679,0.9681,0.9628,0.9626,0.9623,0,0,0,0,0,0,0,0,0,0,0,0,0,0.982,0.9817,0.9699,0.9698,0.9698,0.9649,0.9648,0.9648,0.9676,0.9678,0.968,0.9681,0.9629,0.9626,0.9623,0,0,0,0,0,0,0,0,0,0,0,0,0,0.9768,0.9817,0.9699,0.9706,0.9706,0.9649,0.9648,0.9647,0.9676,0.9678,0.968,0.9682,0.963,0.9626,0.9622,0.9555,0,0,0.961,0.9608,0,0,0,0,0,0,0,0,0.9771,0.9764,0.9706,0.9706,0.9706,0.9671,0.9672,0.9616,0.9675,0.9687,0.9681,0.9683,0.9641,0.9636,0.9622,0.9552,0.955,0.9609,0.9607,0.9605,0.9604,0,0,0,0,0,0,0,0.9775,0.9766,0.9679,0.9705,0.9705,0.9712,0.9707,0.9661,0.9653,0.9687,0.9688,0.9682,0.9641,0.9626,0.9621,0.9549,0.9609,0.9606,0.9603,0.9602,0.9423,0.9421,0,0,0,0,0,0,0.9778,0.9769,0.9681,0.9678,0.9744,0.9708,0.9703,0.968,0.9653,0.9651,0.968,0.9684,0.9632,0.9625,0.9619,0.9538,0.9605,0.9601,0.9599,0.9425,0.9422,0.942,0,0,0,0,0,0,0.978,0.977,0.9683,0.9724,0.9713,0.9704,0.9678,0.9678,0.9663,0.9649,0.9647,0.9666,0.9633,0.9625,0.9571,0.9537,0.96,0.9596,0.9428,0.9424,0.9421,0.9376,0,0,0,0,0,0,0.9784,0.977,0.9744,0.9723,0.9711,0.9635,0.9676,0.9675,0.9656,0.9659,0.9635,0.9633,0.9634,0.9577,0.9567,0.9532,0.9593,0.9431,0.9426,0.9422,0.938,0.9371,0.9363,0,0,0,0,0,0.9788,0.9733,0.9743,0.9732,0.9678,0.9633,0.9626,0.9628,0.9653,0.9626,0.9618,0.9634,0.9543,0.9571,0.956,0.9524,0.9433,0.9427,0.9422,0.9384,0.9373,0.9363,0,0,0,0,0,0,0.975,0.973,0.9741,0.9678,0.9657,0.9638,0.9604,0.9617,0.9588,0.9593,0.9597,0.9591,0.9535,0.9524,0.9556,0.9458,0.9492,0.9484,0.9466,0.9455,0.9447,0.945,0.9589,0,0,0,0,0,0.9734,0.9699,0.9684,0.963,0.9619,0.9614,0.9594,0.9598,0.9576,0.9567,0.9555,0.9533,0.95,0.9477,0.9446,0.938,0.9375,0.935,0.9341,0.9334,0.9327,0.9291,0.928,0.9403,0.9403,0.9403,0,0,0.9701,0.9686,0.9663,0.9622,0.9606,0.9569,0.9606,0.9565,0.9538,0.9561,0.9509,0.95,0.9476,0.9415,0.9388,0.9405,0.9293,0.9328,0.9322,0.9319,0.9285,0.9273,0.9263,0.9399,0.94,0.94,0,0,0.9622,0.9607,0.956,0.9545,0.9521,0.9518,0.9507,0.9487,0.9481,0.9429,0.9446,0.9415,0.9357,0.9339,0.9322,0.9239,0.9252,0.9229,0.9184,0.9149,0.914,0.9131,0.9101,0.909,0.9222,0.9222,0.9222,0,0.9583,0.9529,0.9535,0.9493,0.9474,0.9495,0.9448,0.9432,0.9399,0.9385,0.9405,0.9334,0.9319,0.9255,0.9235,0.9221,0.9209,0.923,0.9141,0.9132,0.9124,0.9095,0.9084,0.9219,0.922,0.922,0.922,0,0.9482,0.9445,0.941,0.9378,0.9355,0.9311,0.9311,0.9288,0.9295,0.929,0.9237,0.9221,0.9187,0.9173,0.9179,0.911,0.9121,0.9141,0.9174,0.911,0.9082,0.9071,0.9215,0.9216,0.9217,0.9218,0,0,0.9374,0.9348,0.9335,0.9321,0.9298,0.9268,0.9226,0.9193,0.9173,0.9151,0.9114,0.9066,0.9085,0.9066,0.9071,0.9041,0.8976,0.9065,0.9064,0.9047,0.8898,0.8882,0.8869,0.8986,0.8984,0.8982,0.89,0,0.9292,0.9217,0.9223,0.9152,0.9117,0.9138,0.9101,0.9083,0.9078,0.9048,0.9043,0.9009,0.9036,0.9025,0.8997,0.8989,0.8945,0.8996,0.8951,0.8949,0.8954,0.8854,0.8837,0.8759,0.8889,0.8887,0.8886,0,0.9185,0.916,0.9086,0.9069,0.9054,0.9021,0.8992,0.8963,0.8943,0.8942,0.8923,0.8933,0.889,0.8928,0.8869,0.8903,0.8886,0.888,0.8877,0.8871,0.8912,0.8844,0.8735,0.8723,0.8869,0.8871,0.8872,0,0.9112,0.906,0.9009,0.8996,0.8975,0.8951,0.8942,0.8924,0.8905,0.888,0.8867,0.8838,0.8821,0.8798,0.88,0.8827,0.874,0.8778,0.8738,0.8737,0.8716,0.8717,0.8601,0.8708,0.8708,0.8709,0.8709,0,0.9019,0.8972,0.8976,0.8944,0.8893,0.8901,0.885,0.8843,0.8828,0.8795,0.8812,0.8782,0.8788,0.8757,0.8759,0.871,0.8703,0.87,0.8701,0.8697,0.8697,0.8684,0.8689,0.8706,0.8706,0.8707,0.8707,0,0.8927,0.8927,0.8873,0.8858,0.8854,0.8817,0.8804,0.8775,0.8773,0.8732,0.8723,0.8719,0.8684,0.8685,0.8646,0.8647,0.8587,0.8594,0.8593,0.8594,0.8553,0.8556,0.8422,0.8405,0.8526,0.8524,0.8524,0,0.8866,0.8831,0.8813,0.8793,0.8781,0.8749,0.8729,0.8736,0.8715,0.8691,0.8664,0.8632,0.8605,0.8549,0.8543,0.8513,0.8519,0.8475,0.8515,0.8513,0.8517,0.8518,0.8514,0.8466,0.8465,0.8463,0.8463,0,0.8757,0.8759,0.8731,0.8702,0.8679,0.8656,0.8636,0.8619,0.8624,0.86,0.8565,0.8545,0.8505,0.8472,0.8444,0.8434,0.8449,0.8451,0.8439,0.8434,0.8434,0.8432,0.8569,0.8453,0.8454,0.8455,0.8455,0.8455,0.8677,0.8647,0.863,0.8598,0.8584,0.8565,0.8537,0.8532,0.8503,0.8471,0.8478,0.8439,0.8422,0.8386,0.8374,0.8343,0.8359,0.8343,0.8339,0.8334,0.8329,0.8441,0.8338,0.8339,0.8339,0.8339,0.8339,0,0.8568,0.8559,0.8529,0.8501,0.8476,0.8494,0.8473,0.8451,0.8416,0.8399,0.8374,0.8334,0.8303,0.8295,0.8266,0.8243,0.8249,0.8234,0.8235,0.8232,0.8317,0.8329,0.823,0.823,0.823,0.823,0.823,0.823,0.8508,0.8458,0.8459,0.8403,0.8394,0.8356,0.8342,0.8325,0.8312,0.8267,0.8241,0.8238,0.8225,0.8195,0.8167,0.8166,0.8153,0.8136,0.8137,0.8216,0.8226,0.8237,0.8248,0.8133,0.8133,0.8055,0.8054,0.8053]}]]